Regional Weather Roundup
Issued by NWS

Home | Current Version | Previous Version | Graphics & Text | Print | Product List | Glossary On
Versions: 1 2 3 4 5 6 7 8 9 10 11 12 13 14 15 16 17 18 19 20 21 22 23 24 25 26 27 28 29 30 31 32 33 34 35 36 37 38 39 40 41 42 43 44 45 46 47 48 49 50
000
ASUS45 KCYS 030710
RWRWY

WYOMING REGIONAL WEATHER ROUNDUP
NATIONAL WEATHER SERVICE CHEYENNE WY
100 AM MDT WED JUN 03 2015

NOTE:  "FAIR" INDICATES FEW OR NO CLOUDS BELOW 12,000 FEET
WITH NO SIGNIFICANT WEATHER AND/OR OBSTRUCTIONS TO VISIBILITY.

WYZ001-030800-
YELLOWSTONE NATIONAL PARK

CITY           SKY/WX    TMP DP  RH WIND       PRES   REMARKS
LK YELLOWSTONE   N/A     35  31  85 CALM      30.14S
W YELLOWSTONE  NOT AVBL

$$
WYZ002>013-054>058-071-098>099-030800-
NORTHERN WYOMING

CITY           SKY/WX    TMP DP  RH WIND       PRES   REMARKS
JACKSON        FAIR      45  39  81 CALM      30.08R
CODY           FAIR      54  45  71 NW6       30.03F
GREYBULL       FAIR      60  47  61 NW12      29.93R
WORLAND        FAIR      53  49  86 S9        29.96R
SHERIDAN       MOCLDY    51  48  89 SW3       30.02F
BUFFALO        FAIR      51  47  86 NW10      30.05S
GILLETTE       FAIR      50  49  96 NW8       30.01R
HULETT         FAIR      52  50  93 CALM      30.01R
NEWCASTLE      FAIR      54  46  76 CALM      29.97S

$$
WYZ014>020-022>026-101>103-030800-
CENTRAL WYOMING

CITY           SKY/WX    TMP DP  RH WIND       PRES   REMARKS
BIG PINEY      FAIR      49  38  65 N3        30.10S
PINEDALE       FAIR      43  37  81 NE3       30.11S
DUBOIS         FAIR      45  32  61 W12       30.09S
LANDER         FAIR      56  40  55 SW9       29.99R
RIVERTON       FAIR      55  45  68 NE10      30.00R
CASPER         FAIR      48  45  89 N3        30.03S
DOUGLAS        FAIR      54  50  86 MISG      30.02R

$$
WYZ021-027>030-104>119-030800-
SOUTHERN WYOMING

CITY           SKY/WX    TMP DP  RH WIND       PRES   REMARKS
EVANSTON       FAIR      54  37  52 NE3       30.08F
KEMMERER       FAIR      46  37  71 N15       30.10S
FORT BRIDGER   SUNNY     54  37  54 S7        30.12R
ROCK SPRINGS   FAIR      54  33  45 W8        30.07F
DIXON          FAIR      49  36  59 E3        30.09S
RAWLINS        FAIR      51  33  50 NW6       30.06F
SARATOGA       FAIR      46  36  66 SE7       30.09S
LARAMIE        FAIR      44  35  70 W14       30.06F
CHEYENNE       FAIR      54  48  80 W6        29.98F
TORRINGTON     FAIR      57  49  74 N7        29.92F
PINE BLUFFS    FAIR      54  52  94 NW6       29.94R

$$



USA.gov is the U.S. government's official web portal to all federal, state and local government web resources and services.